Overview Statistics Trail Chart Weather Telemetry Raw packets
 

This is the latest recevied weather packets stored in our database for station/object ED1ZAI-14. If no packets are shown the sender has not sent any weather packets the latest 10 day(s).

<< 16 17 18 19 20 >>
Time Temp. Humidity Pressure Rain* Wind** Luminosity Snow
1787810661 8.33° C 100% 805.3 hPa - - - -
1787808859 8.33° C 100% 805 hPa - - - -
1787807060 8.33° C 100% 804.9 hPa - - - -
1787805259 8.33° C 100% 805 hPa - - - -
1787803459 8.33° C 100% 805 hPa - - - -
1787801659 8.33° C 100% 805.2 hPa - - - -
1787799859 8.33° C 100% 805.2 hPa - - - -
1787798059 9.44° C 100% 805.2 hPa - - - -
1787796259 9.44° C 100% 805.4 hPa - - - -
1787794459 8.89° C 100% 805.8 hPa - - - -
1787792661 8.33° C 100% 805.9 hPa - - - -
1787790860 7.78° C 100% 806.1 hPa - - - -
1787789060 8.33° C 100% 806.2 hPa - - - -
1787787264 9.44° C 100% 806.2 hPa - - - -
1787785460 10.56° C 100% 806.2 hPa - - - -
1787783660 10.56° C 100% 806.1 hPa - - - -
1787781860 10° C 100% 806.1 hPa - - - -
1787780060 8.89° C 100% 806 hPa - - - -
1787778260 8.89° C 100% 806.1 hPa - - - -
1787776469 8.89° C 100% 806.4 hPa - - - -
1787774660 9.44° C 100% 806.4 hPa - - - -
1787773621 10° C 100% 806.5 hPa - - - -
1787772861 10° C 100% 806.5 hPa - - - -
1787771060 10.56° C 100% 806.2 hPa - - - -
1787769259 11.11° C 100% 806.2 hPa - - - -

* Rain since midnight (hover to see other rain measurements)
** Current wind speed in m/s (hover to see current wind gust speed)